Faith, SD

3:42 PM MST on January 22, 2018 (GMT -0700)
Faith

Weather History for KD07 - August, 2013

Change the Weather History Date:

Friday, August 30, 2013

  Actual Average Record
Temperature  
Mean Temperature 80 °F 68 °F  
Max Temperature 95 °F 82 °F 98 °F (2005)
Min Temperature 64 °F 55 °F 44 °F (2003)
Degree Days  
Heating Degree Days 0 2  
Month to date heating degree days 2 16  
Since 1 June heating degree days 88 118  
Since 1 July heating degree days 15 28  
Cooling Degree Days 15 5  
Month to date cooling degree days 225 226  
Year to date cooling degree days 583 571  
Since 1 June cooling degree days 570 559  
Growing Degree Days 30 (Base 50)    
Moisture  
Dew Point 61 °F    
Average Humidity 59    
Maximum Humidity 87    
Minimum Humidity 30    
Precipitation  
Precipitation 0.00 in 0.05 in 0.07 in (2003)
Month to date precipitation 1.90 1.57  
Year to date precipitation 12.37 13.76  
Sea Level Pressure  
Sea Level Pressure 29.93 in    
Wind  
Wind Speed 11 mph (SSE)    
Max Wind Speed 18 mph    
Max Gust Speed 25 mph    
T = Trace of Precipitation, MM = Missing Value Source: NWS Daily Summary

Daily Weather History Graph

Daily Weather History Graph

Search for Another Location

Airport or City:

Trip Planner

Search our weather history database for the weather conditions in past years. The results will help you decide how hot, cold, wet, or windy it might be!

Date:

Astronomy

Aug. 30, 2013 Rise Set
Actual Time 6:08 AM MDT 7:28 PM MDT
Civil Twilight 5:37 AM MDT 7:58 PM MDT
Nautical Twilight 5:00 AM MDT 8:35 PM MDT
Astronomical Twilight 4:21 AM MDT 9:14 PM MDT
Moon 12:40 AM MDT (8/30) 3:53 PM MDT (8/30)
Length of Visible Light 14h 21m
Length of Day
13h 20m
Waning Crescent, 28% of the Moon is Illuminated
Aug 30
Waning Crescent
Sep 5
New
Sep 12
First Quarter
Sep 19
Full
Sep 26
Last Quarter

Hourly Weather History & Observations

Time (MDT) Temp. Heat Index Dew Point Humidity Pressure Visibility Wind Dir Wind Speed Gust Speed Precip Events Conditions
12:56 AM 68.0 °F - 61.0 °F 78% 29.99 in - ENE 5.8 mph - N/A   Unknown
1:56 AM 66.9 °F - 61.0 °F 81% 30.00 in - ENE 5.8 mph - N/A   Unknown
2:56 AM 66.0 °F - 61.0 °F 84% 30.00 in - East 6.9 mph - N/A   Unknown
3:56 AM 66.9 °F - 62.1 °F 84% 30.00 in - East 3.5 mph - N/A   Unknown
4:56 AM 66.0 °F - 62.1 °F 87% 29.99 in - East 5.8 mph - N/A   Unknown
5:56 AM 66.0 °F - 63.0 °F 90% 30.00 in - SSE 8.1 mph - N/A   Unknown
6:56 AM 66.0 °F - 63.0 °F 90% 30.01 in - South 6.9 mph - N/A   Unknown
7:56 AM 72.0 °F - 64.9 °F 78% 30.02 in - South 11.5 mph - N/A   Unknown
8:56 AM 77.0 °F - 64.9 °F 66% 30.01 in - SSE 12.7 mph - N/A   Unknown
9:56 AM 81.0 °F 82.7 °F 64.9 °F 58% 30.00 in - SSE 12.7 mph - N/A   Unknown
10:56 AM 84.9 °F 86.1 °F 64.0 °F 49% 29.99 in - SSE 10.4 mph - N/A   Unknown
11:56 AM 88.0 °F 88.4 °F 62.1 °F 42% 29.98 in - South 9.2 mph - N/A   Unknown
12:56 PM 90.0 °F 89.7 °F 60.1 °F 37% 29.95 in - South 12.7 mph - N/A   Unknown
1:56 PM 91.9 °F 91.5 °F 60.1 °F 34% 29.93 in - South 12.7 mph 19.6 mph N/A   Unknown
2:56 PM 93.0 °F 92.3 °F 59.0 °F 32% 29.90 in - SSW 9.2 mph 21.9 mph N/A   Unknown
3:56 PM 93.9 °F 93.2 °F 59.0 °F 31% 29.87 in - South 15.0 mph 19.6 mph N/A   Unknown
4:56 PM 95.0 °F 94.4 °F 59.0 °F 30% 29.85 in - SSE 13.8 mph - N/A   Unknown
5:56 PM 88.0 °F 87.1 °F 59.0 °F 37% 29.86 in - SSE 10.4 mph - N/A   Unknown
6:56 PM 87.1 °F 86.7 °F 60.1 °F 40% 29.84 in - South 16.1 mph - N/A   Unknown
7:56 PM 81.0 °F 81.7 °F 61.0 °F 50% 29.84 in - South 12.7 mph - N/A   Unknown
8:56 PM 75.9 °F - 61.0 °F 60% 29.86 in - SSE 12.7 mph - N/A   Unknown
9:56 PM 73.9 °F - 61.0 °F 64% 29.84 in - South 13.8 mph - N/A   Unknown
10:56 PM 73.0 °F - 61.0 °F 66% 29.85 in - South 16.1 mph - N/A   Unknown
11:56 PM 72.0 °F - 61.0 °F 68% 29.84 in - SSW 15.0 mph - N/A   Unknown